Regional Weather Roundup
Issued by NWS Green Bay, WI

Home | Current Version | Previous Version | Text Only | Print | Product List | Glossary On
Versions: 1 2 3 4 5 6 7 8 9 10 11 12 13 14 15 16 17 18 19 20 21 22 23 24 25 26 27 28 29 30 31 32 33 34 35 36 37 38 39 40 41 42 43 44 45 46 47 48 49 50
000
ASUS43 KGRB 211710
RWRGRB

NORTH-CENTRAL AND NORTHEAST WISCONSIN REGIONAL WEATHER ROUNDUP
NATIONAL WEATHER SERVICE GREEN BAY WI
1200 PM CDT TUE OCT 21 2014

WIZ005-009-010>012-018-019-211800-
NORTH CENTRAL WISCONSIN

CITY           SKY/WX    TMP DP  RH WIND       PRES   REMARKS
IRONWOOD       CLOUDY    43  36  75 SE8       30.24S
MANITOWISH WTR CLOUDY    38  35  86 E5        30.25S
ARBOR VITAE    CLOUDY    42  36  79 E5        30.25S
EAGLE RIVER    CLOUDY    41  33  73 SE7       30.25R
LAND O LAKES   CLOUDY    40  34  79 E5        30.26R
RHINELANDER    CLOUDY    40  33  76 CALM      30.26R
PHILLIPS       CLOUDY    41  35  79 NE6       30.24S
ANTIGO         CLOUDY    43  35  72 N3        30.24S
TOMAHAWK       CLOUDY    41  34  74 CALM      30.26S
MERRILL        PTSUNNY   45  35  66 E6        30.25S
$$

WIZ013-073-211800-
NORTHEAST WISCONSIN

CITY           SKY/WX    TMP DP  RH WIND       PRES   REMARKS
IRON MOUNTAIN  SUNNY     46  32  58 NW9       30.24F
MARINETTE      MOSUNNY   48  30  49 N8        30.23S
OCONTO         MOSUNNY   48  33  56 N9        30.24S
$$

WIZ017-030-035>037-045-211800-
CENTRAL WISCONSIN

CITY           SKY/WX    TMP DP  RH WIND       PRES   REMARKS
MEDFORD        CLOUDY    44  35  71 E8        30.24S
WAUSAU         PTSUNNY   44  34  67 SE8       30.24S
MOSINEE        CLOUDY    43  37  81 E3        30.26R
MARSHFIELD     PTSUNNY   46  35  65 VRB3      30.24R
WISC RAPIDS    CLOUDY    46  35  65 E6        30.27R
STEVENS POINT  CLOUDY    42  33  69 NE5       30.26R
WAUPACA        CLOUDY    47  36  63 N7        30.25S
SHAWANO        MOSUNNY   49  36  59 N6        30.25F
CLINTONVILLE   CLOUDY    46  34  61 NE7       30.25S
$$

WIZ038-039-048-051-211800-
FOX VALLEY

CITY           SKY/WX    TMP DP  RH WIND       PRES   REMARKS
NWS GREEN BAY  MOSUNNY   48  35  60 NE6G17    30.25R
APPLETON       PTSUNNY   46  36  66 NE9       30.24S
OSHKOSH        CLOUDY    46  37  71 N12       30.24R
FOND DU LAC    CLOUDY    46  37  71 N10       30.24S
$$

WIZ022-050-052-211800-
EAST CENTRAL WISCONSIN

CITY           SKY/WX    TMP DP  RH WIND       PRES   REMARKS
STURGEON BAY   PTSUNNY   48  34  57 N16       30.24R
MANITOWOC      CLOUDY    48  36  63 N8        30.23R HAZE
SHEBOYGAN      CLOUDY    48  36  63 N8G18     30.22R
$$

LMZ563-521-522-541>543-211800-
LAKESHORE

STATION/POSITION TIME  TEMP    WIND        PRES    VSBY  WAVE
                       AIR SEA DIR/SP/G                  HT/PER
                 (UTC) (F)     (DEG/KT/KT) (MB)    (MI)  (FT/S)
SHEBOYGAN LKSHOR 1700   46 49   10/ 19/ 21 1023.8R
KEWAUNEE LKSHORE 1700   48      30/ 13/ 16 1022.5S
NORTHPORT PIER   1700   45     360/ 13/ 17 1023.7S
N MID LAKE BUOY  1700   44 51   10/ 14/ 16 1023.8R         3/ 5
CHAMBERS ISLAND  1700   48     350/ 13/ 18 1024.0S
MENOMINEE LKSHOR 1700   46      30/ 12/ 13 1024.5R
$$



USA.gov is the U.S. government's official web portal to all federal, state and local government web resources and services.